Location: Unspecified
(0.0000°N, 0.0000°E)
Time: 23:48:42
(UTC+00:00)

Envisat - Pass Details

Date: 15 February 2020
Orbit: 764 x 766 km, 98.1° (Epoch: 25 February)

Event Time Altitude Azimuth Distance (km) Brightness Sun altitude
Rises 19:15:32 0° 200° (SSW) 3,231 6.7 -15.0°
Reaches altitude 10° 19:18:47 10° 222° (SW) 2,302 6.3 -15.8°
Maximum altitude 19:21:40 15° 257° (WSW) 1,953 6.3 -16.5°
Drops below altitude 10° 19:24:33 10° 292° (WNW) 2,296 6.3 -17.2°
Sets 19:27:48 0° 315° (NW) 3,218 6.7 -18.0°
